Location: Newark
(42.9858°N, 0.6717°E)
Time: 02:41:45
(UTC+00:00)

S-56A Canister/Altair - Pass Details

Date: 24 November 2019
Orbit: 632 x 2500 km, 38.9° (Epoch: 14 December)

Event Time Altitude Azimuth Distance (km) Brightness Sun altitude
Rises 14:34:26 0° 228° (SW) 6,021 13.9 15.3°
Reaches altitude 10° 14:38:52 10° 223° (SW) 4,852 14.8 14.8°
Maximum altitude 14:51:02 46° 156° (SSE) 2,315 10.4 13.3°
Drops below altitude 10° 14:59:37 10° 88° (E) 3,467 10.5 12.2°
Sets 15:02:14 0° 81° (E) 4,212 10.8 11.8°
